This demonstration page uses our WeatherBlox Daily Observations layout. Learn more.

Left ArrowRight Arrow

Hourly Observations for August 20, 2015

Temp ( °F °C ) Dew Point ( °F °C ) Humidity (%) Winds ( mph kmh ) Pressure ( in mb ) Visibility ( mi km ) Precip ( " mm )
12:07 am 00:07 Mostly Cloudy 72 22.2 70 21.1 94 94 N N/A 29.83 1010 10 16 N/A
12:20 am 00:20 Mostly Cloudy 72 22.2 70 21.1 94 94 VRB 3 6 29.83 1010 10 16 N/A
12:48 am 00:48 Mostly Cloudy 72 22 70 21 94 94 VRB 3 6 29.80 1009 10 16 N/A
12:53 am 00:53 Mostly Cloudy 72 22.2 70 21.1 94 94 VRB 3 6 29.79 1009 10 16 N/A
1:53 am 01:53 Cloudy 72 22.2 70 21.1 94 94 N N/A 29.79 1009 10 16 N/A
2:53 am 02:53 Cloudy with Light Rain 71 21.7 66 18.9 84 84 W 8 13 29.80 1009 10 16 N/A
3:27 am 03:27 Cloudy with Light Rain 70 21.1 67 19.4 90 90 W 6 9 29.83 1010 10 16 0.01 0.25
3:53 am 03:53 Cloudy 69 20.6 67 19.4 93 93 VRB 5 7 29.82 1010 10 16 0.01 0.25
4:53 am 04:53 Cloudy 69 20.6 66 18.9 90 90 W 7 11 29.82 1010 10 16 N/A
5:05 am 05:05 Cloudy 69 20.6 66 18.9 90 90 VRB 6 9 29.83 1010 10 16 N/A
5:39 am 05:39 Cloudy 68 20 66 18.9 93 93 W 7 11 29.85 1011 10 16 N/A
5:53 am 05:53 Cloudy 68 20 64 17.8 87 87 VRB 5 7 29.84 1011 10 16 N/A
6:02 am 06:02 Cloudy 68 20 64 17.8 87 87 W 6 9 29.85 1011 10 16 N/A
6:21 am 06:21 Cloudy 67 19.4 62 16.7 84 84 W 6 9 29.88 1012 10 16 N/A
6:46 am 06:46 Mostly Cloudy 66 18.9 62 16.7 87 87 W 6 9 29.88 1012 10 16 N/A
6:53 am 06:53 Mostly Cloudy 66 18.9 61 16.1 84 84 W 8 13 29.88 1012 10 16 N/A
7:08 am 07:08 Mostly Cloudy 65 18.3 61 16.1 87 87 W 5 7 29.91 1013 10 16 N/A
7:53 am 07:53 Mostly Sunny 65 18.3 60 15.6 84 84 WNW 7 11 29.91 1013 10 16 N/A
8:05 am 08:05 Mostly Cloudy 65 18.3 59 15 81 81 W 3 6 29.94 1014 10 16 N/A
8:28 am 08:28 Partly Cloudy 66 18.9 60 15.6 81 81 VRB 5 7 29.94 1014 10 16 N/A
8:53 am 08:53 Sunny 66 18.9 59 15 78 78 W 7 11 29.94 1014 10 16 N/A
9:53 am 09:53 Sunny 67 19.4 59 15 76 76 VRB 6 9 29.96 1014 10 16 N/A
10:53 am 10:53 Mostly Sunny 70 21.1 58 14.4 66 66 W 6 9 29.97 1015 10 16 N/A
11:53 am 11:53 Mostly Sunny 73 22.8 58 14.4 59 59 W 8 13 29.98 1015 10 16 N/A
12:53 pm 12:53 Partly Cloudy 75 23.9 58 14.4 55 55 W 9 15 29.99 1016 10 16 N/A
1:53 pm 13:53 Partly Cloudy 75 23.9 56 13.3 52 52 W 9 15 29.98 1015 10 16 N/A
2:53 pm 14:53 Mostly Sunny 76 24.4 56 13.3 50 50 WSW 9 15 29.98 1015 10 16 N/A
3:53 pm 15:53 Mostly Cloudy 77 25 55 12.8 47 47 W 8 13 29.98 1015 10 16 N/A
4:53 pm 16:53 Partly Cloudy 77 25 54 12.2 45 45 W 8 13 29.97 1015 10 16 N/A
5:53 pm 17:53 Mostly Sunny 76 24.4 54 12.2 47 47 WSW 8 13 29.98 1015 10 16 N/A
6:53 pm 18:53 Sunny 75 23.9 54 12.2 48 48 VRB 7 11 30.00 1016 10 16 N/A
7:53 pm 19:53 Sunny 73 22.8 54 12.2 51 51 VRB 5 7 30.00 1016 10 16 N/A
8:53 pm 20:53 Clear 62 16.7 58 14.4 86 86 N N/A 30.03 1017 10 16 N/A
9:53 pm 21:53 Clear 59 15 57 13.9 93 93 N N/A 30.05 1018 10 16 N/A
10:53 pm 22:53 Clear 58 14.4 57 13.9 97 97 N N/A 30.07 1018 10 16 N/A
11:53 pm 23:53 Clear 58 14.4 56 13.3 93 93 N N/A 30.09 1019 10 16 N/A

Powered by AerisWeather